Powrót do katalogu

ONEWEB-0602

AktywnyŁącznośćPO
NORAD 54666·PAYLOAD·🇬🇧 United Kingdom

Wystrzelony Dec 8, 2022 z Cape Canaveral Space Force Station

Loading…

Następne Przeloty (najbliższe 24 godziny)

TLE

ŚwieżeSource: CelesTrak SupGP

Epoka: Sep 14, 2026, 08:04 UTC

1 54666C 22166AA  26257.33664766  .00002490  00000+0  60369-2 0  2574
2 54666  87.9268 226.2513 0002343  80.4865 354.4383 13.21823727    10

Śledź ONEWEB-0602 w czasie rzeczywistym z AllMySat

Download on the App Store